• In Germany
  • List of Countries
  • For 7 days
  • Water Temperature
  • Satellite Maps
  • Weather Map
  • Weather Widgets
  • user-avatar
    Login

    Hourly Weather Pamporovo

    Today, 18 January, Thursday

    Time Temperature Precipitation Wind Pressure Humidity
    00:00 -4°C° 0.4 mm 5 mps 608 mmHg 86%
    01:00 -5°C° 0.4 mm 5 mps 608 mmHg 81%
    02:00 -6°C° 0.4 mm 5 mps 608 mmHg 75%
    03:00 -8°C° 0 mm 6 mps 609 mmHg 73%
    04:00 -9°C° 0 mm 6 mps 609 mmHg 71%
    05:00 -10°C° 0 mm 6 mps 609 mmHg 68%
    06:00 -11°C° 0 mm 7 mps 610 mmHg 66%
    07:00 -12°C° 0 mm 7 mps 611 mmHg 63%
    08:00 -12°C° 0 mm 8 mps 611 mmHg 60%
    09:00 -11°C° 0 mm 8 mps 612 mmHg 58%
    10:00 -11°C° 0 mm 9 mps 614 mmHg 56%
    11:00 -10°C° 0 mm 9 mps 615 mmHg 53%
    12:00 -10°C° 0 mm 9 mps 615 mmHg 50%
    13:00 -9°C° 0 mm 9 mps 616 mmHg 46%
    14:00 -9°C° 0 mm 9 mps 617 mmHg 42%
    15:00 -8°C° 0 mm 7 mps 617 mmHg 46%
    16:00 -9°C° 0 mm 6 mps 618 mmHg 50%
    17:00 -10°C° 0 mm 5 mps 618 mmHg 53%
    18:00 -9°C° 0 mm 4 mps 618 mmHg 56%
    19:00 -10°C° 0 mm 4 mps 618 mmHg 59%
    20:00 -10°C° 0 mm 3 mps 619 mmHg 61%
    21:00 -10°C° 0 mm 3 mps 619 mmHg 59%
    22:00 -10°C° 0 mm 3 mps 619 mmHg 56%
    23:00 -10°C° 0 mm 3 mps 619 mmHg 54%

    Tomorrow, 19 January, Friday

    Time Temperature Precipitation Wind Pressure Humidity
    00:00 -8°C° 0 mm 2 mps 619 mmHg 53%
    01:00 -8°C° 0 mm 2 mps 619 mmHg 52%
    02:00 -8°C° 0 mm 2 mps 619 mmHg 51%
    03:00 -8°C° 0 mm 2 mps 619 mmHg 50%
    04:00 -8°C° 0 mm 2 mps 619 mmHg 49%
    05:00 -7°C° 0 mm 2 mps 619 mmHg 48%
    06:00 -7°C° 0 mm 2 mps 619 mmHg 48%
    07:00 -7°C° 0 mm 2 mps 620 mmHg 47%
    08:00 -7°C° 0 mm 2 mps 620 mmHg 47%
    09:00 -4°C° 0 mm 2 mps 621 mmHg 44%
    10:00 0°C° 0 mm 1 mps 622 mmHg 41%
    11:00 +2°C° 0 mm 1 mps 623 mmHg 39%
    12:00 +3°C° 0 mm 1 mps 623 mmHg 39%
    13:00 +2°C° 0 mm 2 mps 623 mmHg 40%
    14:00 +3°C° 0 mm 2 mps 623 mmHg 41%
    15:00 +1°C° 0 mm 2 mps 622 mmHg 47%
    16:00 +1°C° 0 mm 1 mps 621 mmHg 54%
    17:00 -1°C° 0 mm 1 mps 621 mmHg 61%
    18:00 -2°C° 0 mm 1 mps 621 mmHg 62%
    19:00 -5°C° 0 mm 2 mps 620 mmHg 63%
    20:00 -6°C° 0 mm 2 mps 620 mmHg 64%
    21:00 -6°C° 0 mm 2 mps 620 mmHg 62%
    22:00 -6°C° 0 mm 2 mps 620 mmHg 61%
    23:00 -6°C° 0 mm 2 mps 620 mmHg 60%

    Day after tomorrow, 20 January, Saturday

    Time Temperature Precipitation Wind Pressure Humidity
    00:00 -6°C° 0 mm 2 mps 620 mmHg 61%
    01:00 -6°C° 0 mm 2 mps 620 mmHg 62%
    02:00 -6°C° 0 mm 2 mps 620 mmHg 64%
    03:00 -6°C° 0 mm 2 mps 620 mmHg 65%
    04:00 -6°C° 0 mm 2 mps 619 mmHg 67%
    05:00 -6°C° 0 mm 2 mps 619 mmHg 69%
    06:00 -6°C° 0 mm 2 mps 619 mmHg 70%
    07:00 -5°C° 0 mm 2 mps 620 mmHg 71%
    08:00 -5°C° 0 mm 2 mps 620 mmHg 72%
    09:00 -3°C° 0 mm 2 mps 621 mmHg 68%
    10:00 +1°C° 0 mm 1 mps 621 mmHg 64%
    11:00 +3°C° 0 mm 1 mps 622 mmHg 59%
    12:00 +3°C° 0 mm 1 mps 622 mmHg 59%
    13:00 +3°C° 0 mm 2 mps 622 mmHg 58%
    14:00 +3°C° 0 mm 2 mps 622 mmHg 58%
    15:00 +2°C° 0 mm 2 mps 621 mmHg 63%
    16:00 +1°C° 0 mm 2 mps 620 mmHg 69%
    17:00 +1°C° 0 mm 1 mps 620 mmHg 75%
    18:00 -2°C° 0 mm 2 mps 619 mmHg 76%
    19:00 -2°C° 0 mm 2 mps 619 mmHg 77%
    20:00 -3°C° 0 mm 2 mps 619 mmHg 77%
    21:00 -3°C° 0.1 mm 2 mps 619 mmHg 79%
    22:00 -3°C° 0.1 mm 2 mps 618 mmHg 80%
    23:00 -3°C° 0.1 mm 2 mps 618 mmHg 82%

    21 January, Sunday

    Time Temperature Precipitation Wind Pressure Humidity
    00:00 -3°C° 0.1 mm 2 mps 618 mmHg 83%
    01:00 -2°C° 0.1 mm 2 mps 618 mmHg 84%
    02:00 -2°C° 0.1 mm 3 mps 618 mmHg 86%
    03:00 -3°C° 0 mm 2 mps 618 mmHg 87%
    04:00 -3°C° 0 mm 2 mps 618 mmHg 88%
    05:00 -4°C° 0 mm 2 mps 618 mmHg 89%
    06:00 -2°C° 0 mm 1 mps 618 mmHg 89%
    07:00 -2°C° 0 mm 1 mps 618 mmHg 88%
    08:00 -2°C° 0 mm 1 mps 619 mmHg 88%
    09:00 -1°C° 0 mm 1 mps 619 mmHg 83%
    10:00 0°C° 0 mm 1 mps 619 mmHg 79%
    11:00 +1°C° 0 mm 1 mps 620 mmHg 75%
    12:00 +1°C° 0.2 mm 1 mps 619 mmHg 74%
    13:00 0°C° 0.2 mm 1 mps 619 mmHg 74%
    14:00 0°C° 0.2 mm 1 mps 619 mmHg 74%
    15:00 -2°C° 0.6 mm 2 mps 618 mmHg 78%
    16:00 -3°C° 0.6 mm 2 mps 618 mmHg 83%
    17:00 -4°C° 0.6 mm 2 mps 618 mmHg 87%
    18:00 -5°C° 0.9 mm 3 mps 618 mmHg 88%
    19:00 -6°C° 0.9 mm 3 mps 618 mmHg 90%
    20:00 -6°C° 0.9 mm 3 mps 617 mmHg 91%
    21:00 -6°C° 0.9 mm 3 mps 617 mmHg 91%
    22:00 -7°C° 0.9 mm 3 mps 618 mmHg 91%
    23:00 -7°C° 0.9 mm 3 mps 618 mmHg 91%

    22 January, Monday

    Time Temperature Precipitation Wind Pressure Humidity
    00:00 -8°C° 0.6 mm 4 mps 618 mmHg 91%
    01:00 -8°C° 0.6 mm 4 mps 618 mmHg 91%
    02:00 -9°C° 0.6 mm 4 mps 618 mmHg 91%
    03:00 -9°C° 0.1 mm 4 mps 618 mmHg 90%
    04:00 -9°C° 0.1 mm 4 mps 618 mmHg 89%
    05:00 -9°C° 0.1 mm 4 mps 618 mmHg 88%
    06:00 -10°C° 0.1 mm 4 mps 618 mmHg 87%
    07:00 -10°C° 0.1 mm 4 mps 618 mmHg 86%
    08:00 -10°C° 0.1 mm 4 mps 619 mmHg 85%
    09:00 -10°C° 0 mm 4 mps 620 mmHg 82%
    10:00 -9°C° 0 mm 4 mps 620 mmHg 79%
    11:00 -10°C° 0 mm 5 mps 621 mmHg 76%
    12:00 -8°C° 0 mm 5 mps 621 mmHg 75%
    13:00 -8°C° 0 mm 5 mps 621 mmHg 73%
    14:00 -8°C° 0 mm 5 mps 622 mmHg 72%
    15:00 -9°C° 0 mm 4 mps 622 mmHg 74%
    16:00 -9°C° 0 mm 4 mps 622 mmHg 76%
    17:00 -10°C° 0 mm 4 mps 623 mmHg 78%
    18:00 -11°C° 0 mm 4 mps 623 mmHg 80%
    19:00 -11°C° 0 mm 4 mps 623 mmHg 82%
    20:00 -12°C° 0 mm 3 mps 624 mmHg 84%
    21:00 -13°C° 0 mm 3 mps 624 mmHg 84%
    22:00 -13°C° 0 mm 3 mps 624 mmHg 84%
    23:00 -13°C° 0 mm 3 mps 624 mmHg 84%

    23 January, Tuesday

    Time Temperature Precipitation Wind Pressure Humidity
    00:00 -14°C° 0 mm 3 mps 625 mmHg 84%
    01:00 -14°C° 0 mm 3 mps 625 mmHg 84%
    02:00 -14°C° 0 mm 3 mps 625 mmHg 84%
    03:00 -14°C° 0 mm 3 mps 625 mmHg 83%
    04:00 -14°C° 0 mm 2 mps 625 mmHg 83%
    05:00 -14°C° 0 mm 2 mps 625 mmHg 82%
    06:00 -14°C° 0 mm 2 mps 626 mmHg 80%
    07:00 -14°C° 0 mm 2 mps 626 mmHg 79%
    08:00 -14°C° 0 mm 2 mps 626 mmHg 77%
    09:00 -12°C° 0 mm 2 mps 627 mmHg 70%
    10:00 -9°C° 0 mm 2 mps 628 mmHg 63%
    11:00 -8°C° 0 mm 2 mps 629 mmHg 56%
    12:00 -7°C° 0 mm 2 mps 629 mmHg 54%
    13:00 -6°C° 0 mm 2 mps 629 mmHg 53%
    14:00 -6°C° 0 mm 2 mps 629 mmHg 51%
    15:00 -7°C° 0 mm 2 mps 629 mmHg 56%
    16:00 -7°C° 0 mm 1 mps 628 mmHg 61%
    17:00 -8°C° 0 mm 1 mps 628 mmHg 66%
    18:00 -8°C° 0 mm 1 mps 628 mmHg 66%
    19:00 -9°C° 0 mm 1 mps 628 mmHg 66%
    20:00 -10°C° 0 mm 1 mps 627 mmHg 66%
    21:00 -10°C° 0 mm 1 mps 627 mmHg 64%
    22:00 -10°C° 0 mm 1 mps 627 mmHg 62%
    23:00 -10°C° 0 mm 1 mps 627 mmHg 61%
    Show more